Change the Weather History Date:

Wednesday, January 2, 2013

  Actual Average Record
Temperature  
Mean Temperature 18 °F -  
Max Temperature 23 °F 31 °F 50 °F (1954)
Min Temperature 12 °F 16 °F -5 °F (1974)
Degree Days  
Heating Degree Days 47    
Moisture  
Dew Point 13 °F    
Average Humidity 76    
Maximum Humidity 81    
Minimum Humidity 70    
Precipitation  
Precipitation 0.00 in - - ()
Sea Level Pressure  
Sea Level Pressure 30.14 in    
Wind  
Wind Speed 7 mph (SW)    
Max Wind Speed 10 mph    
Max Gust Speed -    
Visibility 10 miles    
Events Snow    
Averages and records for this station are not official NWS values.
T = Trace of Precipitation, MM = Missing Value Source: NWS Daily Summary

Daily Weather History Graph

Daily Weather History Graph

Search for Another Location

Airport or City:

Trip Planner

Search our weather history database for the weather conditions in past years. The results will help you decide how hot, cold, wet, or windy it might be!

Date:

Astronomy

Jan. 02, 2013 Rise Set
Actual Time 8:10 AM EST 5:22 PM EST
Civil Twilight 7:38 AM EST 5:54 PM EST
Nautical Twilight 7:03 AM EST 6:29 PM EST
Astronomical Twilight 6:30 AM EST 7:03 PM EST
Moon 11:00 PM EST 10:46 AM EST
Length of Visible Light 10h 15m
Length of Day
9h 12m
Waning Gibbous, 75% of the Moon is Illuminated
Jan 2
Waning Gibbous
Jan 4
Last Quarter
Jan 11
New
Jan 18
First Quarter
Jan 26
Full

Hourly Weather History & Observations

Time (EST) Temp. Windchill Dew Point Humidity Pressure Visibility Wind Dir Wind Speed Gust Speed Precip Events Conditions
12:15 AM 20.7 °F 14.2 °F 12.9 °F 72% 30.11 in 10.0 mi West 4.6 mph - N/A   Overcast
12:34 AM 21.2 °F 10.1 °F 12.7 °F 70% 30.11 in 10.0 mi West 10.4 mph - N/A   Overcast
12:55 AM 21.0 °F 9.9 °F 13.1 °F 71% 30.10 in 10.0 mi West 10.4 mph - N/A   Overcast
1:15 AM 21.0 °F 9.9 °F 12.7 °F 70% 30.10 in 10.0 mi West 10.4 mph - N/A   Overcast
1:34 AM 21.0 °F 13.4 °F 12.7 °F 70% 30.10 in 10.0 mi West 5.8 mph - N/A   Overcast
1:55 AM 21.2 °F 12.6 °F 12.9 °F 70% 30.10 in 10.0 mi West 6.9 mph - N/A   Overcast
2:14 AM 21.2 °F 11.7 °F 12.9 °F 70% 30.10 in 10.0 mi West 8.1 mph - N/A   Overcast
2:35 AM 21.2 °F 11.7 °F 13.3 °F 72% 30.11 in 10.0 mi West 8.1 mph - N/A   Overcast
2:55 AM 21.2 °F 11.7 °F 13.5 °F 72% 30.11 in 10.0 mi West 8.1 mph - N/A   Overcast
3:14 AM 21.6 °F 12.1 °F 13.3 °F 70% 30.12 in 10.0 mi West 8.1 mph - N/A   Overcast
3:35 AM 21.2 °F 12.6 °F 13.3 °F 72% 30.12 in 10.0 mi West 6.9 mph - N/A   Overcast
3:55 AM 21.0 °F 11.4 °F 13.1 °F 71% 30.11 in 10.0 mi WNW 8.1 mph - N/A   Overcast
4:15 AM 21.0 °F 13.4 °F 13.3 °F 72% 30.12 in 10.0 mi West 5.8 mph - N/A   Overcast
4:35 AM 21.2 °F 11.7 °F 13.3 °F 72% 30.11 in 10.0 mi West 8.1 mph - N/A   Overcast
4:55 AM 21.2 °F 10.9 °F 13.1 °F 71% 30.11 in 10.0 mi WNW 9.2 mph - N/A   Overcast
5:15 AM 21.4 °F 11.9 °F 13.6 °F 72% 30.12 in 10.0 mi West 8.1 mph - N/A   Overcast
5:35 AM 20.8 °F 13.2 °F 13.3 °F 73% 30.12 in 10.0 mi SSW 5.8 mph - N/A   Overcast
5:54 AM 19.2 °F 10.2 °F 13.5 °F 78% 30.13 in 10.0 mi SSW 6.9 mph - N/A   Overcast
6:15 AM 18.5 °F 10.4 °F 13.1 °F 79% 30.12 in 10.0 mi SSW 5.8 mph - N/A   Overcast
6:35 AM 18.5 °F 10.4 °F 13.1 °F 79% 30.12 in 10.0 mi SSW 5.8 mph - N/A   Overcast
6:54 AM 18.5 °F 10.4 °F 13.1 °F 79% 30.12 in 10.0 mi SSW 5.8 mph - N/A   Overcast
7:15 AM 19.2 °F 11.3 °F 13.6 °F 79% 30.12 in 10.0 mi SW 5.8 mph - N/A   Overcast
7:35 AM 19.6 °F 11.7 °F 14.0 °F 79% 30.13 in 10.0 mi SW 5.8 mph - N/A   Overcast
7:54 AM 19.9 °F 12.1 °F 14.0 °F 78% 30.13 in 10.0 mi SW 5.8 mph - N/A Snow Light Snow
8:15 AM 18.9 °F 10.8 °F 13.6 °F 80% 30.12 in 10.0 mi SSW 5.8 mph - N/A Snow Light Snow
8:35 AM 19.2 °F 10.2 °F 14.2 °F 81% 30.13 in 10.0 mi SW 6.9 mph - N/A   Overcast
8:55 AM 19.4 °F 10.4 °F 14.4 °F 81% 30.14 in 10.0 mi SSW 6.9 mph - N/A   Overcast
9:15 AM 19.4 °F 10.4 °F 14.4 °F 81% 30.15 in 10.0 mi SW 6.9 mph - N/A Snow Light Snow
9:35 AM 19.8 °F 10.8 °F 14.4 °F 80% 30.16 in 10.0 mi SSW 6.9 mph - N/A   Overcast
9:55 AM 19.4 °F 12.8 °F 14.2 °F 80% 30.17 in 10.0 mi SW 4.6 mph - N/A   Overcast
10:15 AM 19.4 °F 11.5 °F 14.0 °F 80% 30.17 in 10.0 mi SSW 5.8 mph - N/A Snow Light Snow
10:34 AM 19.9 °F 13.4 °F 14.0 °F 78% 30.17 in 10.0 mi SW 4.6 mph - N/A Snow Light Snow
10:55 AM 20.1 °F 12.3 °F 14.4 °F 78% 30.18 in 10.0 mi SW 5.8 mph - N/A   Overcast
11:15 AM 20.3 °F 13.8 °F 14.4 °F 78% 30.18 in 10.0 mi SW 4.6 mph - N/A   Overcast
11:34 AM 20.3 °F 11.5 °F 14.5 °F 78% 30.17 in 10.0 mi SW 6.9 mph - N/A   Overcast
11:55 AM 20.8 °F 12.1 °F 14.9 °F 78% 30.17 in 10.0 mi WSW 6.9 mph - N/A   Overcast
12:15 PM 21.2 °F 13.6 °F 15.4 °F 78% 30.16 in 10.0 mi SW 5.8 mph - N/A   Overcast
12:34 PM 21.6 °F 15.3 °F 15.8 °F 78% 30.16 in 10.0 mi SW 4.6 mph - N/A   Overcast
12:55 PM 22.1 °F 14.7 °F 16.2 °F 78% 30.15 in 10.0 mi SW 5.8 mph - N/A   Overcast
1:15 PM 22.1 °F 15.9 °F 16.2 °F 78% 30.15 in 10.0 mi SW 4.6 mph - N/A   Overcast
1:34 PM 22.6 °F 14.3 °F 16.5 °F 77% 30.14 in 10.0 mi SSW 6.9 mph - N/A   Overcast
1:55 PM 23.0 °F 15.8 °F 16.5 °F 76% 30.13 in 10.0 mi WSW 5.8 mph - N/A   Overcast
2:15 PM 23.0 °F 18.4 °F 16.5 °F 76% 30.13 in 10.0 mi SW 3.5 mph - N/A   Overcast
2:35 PM 23.0 °F 15.8 °F 16.3 °F 76% 30.13 in 10.0 mi WSW 5.8 mph - N/A   Overcast
2:55 PM 23.4 °F 17.4 °F 17.2 °F 77% 30.13 in 10.0 mi South 4.6 mph - N/A   Overcast
3:14 PM 23.0 °F 13.9 °F 16.9 °F 77% 30.13 in 10.0 mi SSW 8.1 mph - N/A   Overcast
3:35 PM 23.0 °F 13.9 °F 16.7 °F 77% 30.14 in 10.0 mi SSW 8.1 mph - N/A   Overcast
3:55 PM 22.8 °F 14.5 °F 16.5 °F 77% 30.14 in 10.0 mi SSW 6.9 mph - N/A   Overcast
4:14 PM 22.6 °F 15.3 °F 16.0 °F 76% 30.14 in 10.0 mi SSW 5.8 mph - N/A   Overcast
4:35 PM 23.0 °F 15.8 °F 15.8 °F 74% 30.15 in 10.0 mi SSW 5.8 mph - N/A   Overcast
4:55 PM 22.3 °F 13.9 °F 15.3 °F 74% 30.15 in 10.0 mi South 6.9 mph - N/A   Mostly Cloudy
5:14 PM 21.0 °F 13.4 °F 14.2 °F 75% 30.15 in 10.0 mi South 5.8 mph - N/A   Scattered Clouds
5:35 PM 20.3 °F 11.5 °F 13.5 °F 75% 30.16 in 10.0 mi South 6.9 mph - N/A   Clear
5:55 PM 19.2 °F 10.2 °F 12.6 °F 75% 30.16 in 10.0 mi SSW 6.9 mph - N/A   Clear
6:14 PM 18.9 °F 9.8 °F 12.2 °F 75% 30.17 in 10.0 mi South 6.9 mph - N/A   Clear
6:35 PM 18.5 °F 9.3 °F 12.2 °F 76% 30.17 in 10.0 mi South 6.9 mph - N/A   Clear
6:55 PM 17.2 °F 10.2 °F 11.3 °F 78% 30.17 in 10.0 mi South 4.6 mph - N/A   Clear
7:35 PM 17.2 °F 8.9 °F 11.3 °F 78% 30.16 in 10.0 mi South 5.8 mph - N/A   Clear
7:55 PM 16.7 °F 8.3 °F 11.3 °F 79% 30.16 in 10.0 mi South 5.8 mph - N/A   Clear
8:15 PM 16.3 °F 6.7 °F 11.1 °F 80% 30.16 in 10.0 mi South 6.9 mph - N/A   Clear
8:35 PM 16.3 °F 7.8 °F 11.3 °F 81% 30.15 in 10.0 mi South 5.8 mph - N/A   Clear
8:54 PM 15.8 °F 7.2 °F 10.9 °F 81% 30.15 in 10.0 mi South 5.8 mph - N/A   Clear
9:15 PM 15.6 °F 5.9 °F 10.8 °F 81% 30.15 in 10.0 mi South 6.9 mph - N/A   Clear
9:35 PM 15.6 °F 5.9 °F 10.4 °F 80% 30.15 in 10.0 mi South 6.9 mph - N/A   Clear
9:54 PM 15.1 °F 6.4 °F 9.5 °F 79% 30.15 in 10.0 mi South 5.8 mph - N/A   Clear
10:15 PM 14.7 °F 3.8 °F 9.1 °F 79% 30.14 in 10.0 mi South 8.1 mph - N/A   Clear
10:35 PM 14.9 °F 6.1 °F 8.4 °F 76% 30.14 in 10.0 mi South 5.8 mph - N/A   Clear
10:55 PM 14.5 °F 3.6 °F 7.9 °F 75% 30.13 in 10.0 mi South 8.1 mph - N/A   Clear
11:15 PM 14.0 °F 5.1 °F 7.2 °F 74% 30.14 in 10.0 mi South 5.8 mph - N/A   Clear
11:35 PM 13.1 °F 4.0 °F 6.6 °F 75% 30.13 in 10.0 mi South 5.8 mph - N/A   Clear
11:55 PM 12.7 °F 2.4 °F 5.9 °F 74% 30.13 in 10.0 mi South 6.9 mph - N/A   Clear